Regional Weather Roundup
Issued by NWS

Home | Current Version | Previous Version | Graphics & Text | Print | Product List | Glossary On
Versions: 1 2 3 4 5 6 7 8 9 10 11 12 13 14 15 16 17 18 19 20 21 22 23 24 25 26 27 28 29 30 31 32 33 34 35 36 37 38 39 40 41 42 43 44 45 46 47 48 49 50
000
ASUS43 KTOP 241208
RWRKS

WEATHER ROUNDUP FOR KANSAS
NATIONAL WEATHER SERVICE GOODLAND KS
600 AM CST FRI FEB 24 2017

NOTE:  "FAIR" INDICATES FEW OR NO CLOUDS BELOW 12,000 FEET WITH NO
SIGNIFICANT WEATHER AND/OR OBSTRUCTIONS TO VISIBILITY.

KSZ001>006-013>018-027>032-041>047-241300-
NORTHWEST KANSAS

CITY           SKY/WX    TMP DP  RH WIND       PRES   REMARKS
GOODLAND       CLOUDY    21  18  88 N20       29.83R WCI   6
6HR MIN TEMP:  20; 6HR MAX TEMP:  24;

HAYS           CLOUDY    28  24  85 NW18      29.80R WCI  15
HILL CITY      CLOUDY    26  23  88 NW12      29.83R WCI  16
6HR MIN TEMP:  26; 6HR MAX TEMP:  31; 6HR PCP: TRACE;

RUSSELL        CLOUDY    29  25  85 NW17      29.78R WCI  17
6HR MIN TEMP:  29; 6HR MAX TEMP:  33;

$$

KSZ061>065-074>080-084>089-241300-
SOUTHWEST KANSAS

CITY           SKY/WX    TMP DP  RH WIND       PRES   REMARKS
DODGE CITY     PTCLDY    27  20  75 NW21G26   29.81R WCI  13
6HR MIN TEMP:  25; 6HR MAX TEMP:  33;

ELKHART          N/A     22   7  53 NW12        N/A  WCI  10
GARDEN CITY    CLOUDY    27  17  66 NW20      29.84R WCI  13
6HR MIN TEMP:  27; 6HR MAX TEMP:  30;

GREAT BEND     CLOUDY    31  25  78 NW17      29.79R WCI  19
LIBERAL        MOCLDY    27  14  59 N13       29.86R WCI  16
PRATT          MOCLDY    29  21  74 NW22G28   29.79R WCI  15
6HR MIN TEMP:  27; 6HR MAX TEMP:  33;

$$

KSZ066>073-081>083-090>101-241300-
SOUTHEAST KANSAS

CITY           SKY/WX    TMP DP  RH WIND       PRES   REMARKS
CHANUTE        CLOUDY    39  33  79 NW18G26   29.67R WCI  30
6HR MIN TEMP:  39; 6HR MAX TEMP:  49;

COFFEYVILLE    CLOUDY    41  36  82 NW15      29.69R
6HR MIN TEMP:  41; 6HR MAX TEMP:  54;

HUTCHINSON     CLOUDY    34  26  72 NW20G29   29.75R WCI  23
6HR MIN TEMP:  33; 6HR MAX TEMP:  38;

MEDICINE LODGE   N/A     30  23  75 NW15G23   29.79R WCI  19
NEWTON         CLOUDY    33  26  75 NW24G30   29.72R WCI  20
PARSONS        CLOUDY    40  34  79 NW15      29.69R WCI  32
6HR MIN TEMP:  40; 6HR MAX TEMP:  49;

WICHITA INTL   MOCLDY    35  26  69 NW21G29   29.73R WCI  24
6HR MIN TEMP:  35; 6HR MAX TEMP:  42;

WICHITA JABRA  CLOUDY    34  27  75 NW16G24   29.72R WCI  24
6HR MIN TEMP:  34; 6HR MAX TEMP:  42;

WICHITA MCCONL MOCLDY    35  26  67 NW21G26   29.72R WCI  24
WINFIELD       CLOUDY    37  28  70 NW18G28   29.76R WCI  27
6HR MIN TEMP:  37; 6HR MAX TEMP:  44;

$$

KSZ007>012-019>026-033>040-048>060-102>105-241300-
NORTHEAST KANSAS

CITY           SKY/WX    TMP DP  RH WIND       PRES   REMARKS
CONCORDIA      CLOUDY    30  29  96 NW16      29.72R WCI  19
6HR MIN TEMP:  30; 6HR MAX TEMP:  33;

EMPORIA        CLOUDY    35  30  82 W22G28    29.67R WCI  23
6HR MIN TEMP:  35; 6HR MAX TEMP:  43;

LAWRENCE       CLOUDY    39  35  86 W20       29.63R WCI  29
6HR MIN TEMP:  39; 6HR MAX TEMP:  44;

MANHATTAN      CLOUDY    34  31  88 NW7G18    29.69R FOG
6HR MIN TEMP:  34; 6HR MAX TEMP:  42;

MARYSVILLE     LGT SNOW  32  32 100 NW13      29.65S WCI  22
OLATHE IND     CLOUDY    38  35  89 W15G25    29.60R WCI  29
6HR MIN TEMP:  38; 6HR MAX TEMP:  48;

OLATHE EXE     CLOUDY    37  35  92 NW12      29.59R WCI  29
6HR MIN TEMP:  37; 6HR MAX TEMP:  48;

SALINA         CLOUDY    35  28  75 NW16G30   29.74R WCI  25
6HR MIN TEMP:  35; 6HR MAX TEMP:  39;

TOPEKA BILLARD CLOUDY    37  34  89 NW17G25   29.64R WCI  27
6HR MIN TEMP:  37; 6HR MAX TEMP:  44;

TOPEKA FORBES  CLOUDY    38  33  82 NW16G24   29.63R WCI  29
6HR MIN TEMP:  38; 6HR MAX TEMP:  44;

$$




USA.gov is the U.S. government's official web portal to all federal, state and local government web resources and services.